[[{"header":{"parameterUnit":"m.s-1","parameterCategory":1,"la1":30.2991,"la2":30.254,"lo1":-89.0895,"lo2":-89.0444,"dy":0.0017,"dx":0.0017,"nx":28,"ny":28,"refTime":"2025-04-02T09:00:00:Z","depth":0,"parameterNumber":2,"parameterNumberName":"U-component_of_WINDS"},"data":[0,0,0,0,0,0,0,0,0,0,0,0,0,0,0,0,0,0,0,0,0,0,0,0,0,0,0,0,0,0,0,0,0,0,0,0,0,0,0,0,0,0,0,0,0,0,0,0,0,0,0,0,0,0,0,0,0,0,-5.0181,-5.0183,0,-5.0307,-5.0309,-5.031,-5.0331,-5.033,-5.0329,-5.0327,-5.0455,-5.0459,-5.0463,0,0,0,0,0,0,0,0,0,0,0,0,0,-4.9957,-4.9961,-5.0181,-5.0183,-5.0184,-5.0307,-5.0309,-5.031,-5.0331,-5.033,-5.0328,-5.0327,-5.0453,-5.0458,-5.0464,0,0,0,0,0,0,0,0,0,0,0,0,0,-5.0066,-4.9963,-5.0181,-5.0209,-5.0213,-5.0307,-5.0309,-5.0311,-5.0331,-5.033,-5.0328,-5.0326,-5.0452,-5.0458,-5.0464,-5.0538,0,0,-5.0485,-5.0488,0,0,0,0,0,0,0,0,-5.006,-5.0074,-5.0204,-5.0208,-5.0212,-5.0302,-5.0276,-5.0387,-5.0332,-5.0286,-5.0327,-5.0326,-5.0405,-5.0415,-5.0442,-5.0544,-5.0549,-5.0485,-5.0489,-5.0492,-5.0494,0,0,0,0,0,0,0,-5.0052,-5.0069,-5.0231,-5.0205,-5.0211,-5.0215,-5.0229,-5.0297,-5.0353,-5.029,-5.0292,-5.0307,-5.0407,-5.0436,-5.0446,-5.0551,-5.0485,-5.0491,-5.0495,-5.0498,-5.0718,-5.072,0,0,0,0,0,0,-5.004,-5.0062,-5.0227,-5.0235,-5.013,-5.0221,-5.0236,-5.0274,-5.0352,-5.0363,-5.0308,-5.0307,-5.0426,-5.0438,-5.045,-5.054,-5.0492,-5.0498,-5.0502,-5.0716,-5.0719,-5.0721,0,0,0,0,0,0,-5.0035,-5.0054,-5.0222,-5.0149,-5.0171,-5.0226,-5.0269,-5.0278,-5.0307,-5.0366,-5.0376,-5.0327,-5.0425,-5.0441,-5.0516,-5.0545,-5.0501,-5.0507,-5.0714,-5.0717,-5.072,-5.0721,0,0,0,0,0,0,-5.0028,-5.0052,-5.0081,-5.015,-5.0175,-5.0286,-5.0271,-5.0281,-5.0318,-5.0319,-5.0387,-5.0397,-5.0425,-5.0506,-5.0522,-5.0553,-5.0512,-5.0712,-5.0716,-5.0719,-5.0718,-5.0723,-5.0727,0,0,0,0,0,-5.002,-5.0076,-5.0082,-5.0102,-5.0212,-5.0287,-5.0301,-5.0333,-5.0321,-5.0349,-5.0388,-5.0394,-5.054,-5.0513,-5.0532,-5.0565,-5.071,-5.0714,-5.0719,-5.0716,-5.0722,-5.0727,0,0,0,0,0,0,-5.0008,-5.0085,-5.0093,-5.0173,-5.0223,-5.0291,-5.0328,-5.0339,-5.0393,-5.0391,-5.0428,-5.0443,-5.0516,-5.0549,-5.0518,-5.064,-5.0624,-5.0632,-5.0615,-5.0622,-5.0626,-5.0616,-5.0518,0,0,0,0,0,-5.0015,-5.007,-5.0135,-5.0199,-5.0224,-5.0272,-5.0306,-5.0326,-5.038,-5.0401,-5.0444,-5.0496,-5.0553,-5.059,-5.0646,-5.0724,-5.0739,-5.0756,-5.0761,-5.0764,-5.077,-5.0813,-5.0821,-5.0735,-5.0735,-5.0735,0,0,-5.0029,-5.0078,-5.0111,-5.0198,-5.0239,-5.0295,-5.0289,-5.0349,-5.039,-5.041,-5.0483,-5.0517,-5.0577,-5.0653,-5.069,-5.0683,-5.0798,-5.077,-5.0772,-5.0776,-5.0818,-5.0826,-5.0834,-5.0738,-5.0737,-5.0737,0,0,-5.0083,-5.0126,-5.0184,-5.0226,-5.0289,-5.0321,-5.0335,-5.0401,-5.0424,-5.0499,-5.0514,-5.0564,-5.0662,-5.0704,-5.0738,-5.0809,-5.0817,-5.0827,-5.0849,-5.0891,-5.0898,-5.0904,-5.0927,-5.0936,-5.0833,-5.0833,-5.0833,0,-5.0092,-5.0177,-5.0212,-5.0271,-5.0308,-5.033,-5.0388,-5.0427,-5.0505,-5.053,-5.0522,-5.0645,-5.0687,-5.0774,-5.0791,-5.0819,-5.0835,-5.0817,-5.0894,-5.0901,-5.0907,-5.093,-5.0939,-5.0833,-5.0833,-5.0833,-5.0833,0,-5.0184,-5.0244,-5.0282,-5.0358,-5.04,-5.0458,-5.0501,-5.054,-5.0557,-5.0589,-5.0664,-5.0716,-5.0782,-5.0805,-5.0822,-5.0894,-5.0888,-5.0887,-5.087,-5.0915,-5.0937,-5.0946,-5.0834,-5.0834,-5.0834,-5.0834,0,0,-5.0232,-5.0326,-5.034,-5.0374,-5.0446,-5.0492,-5.0552,-5.0617,-5.0649,-5.0703,-5.0752,-5.0836,-5.0835,-5.0874,-5.0896,-5.0933,-5.0984,-5.0928,-5.0929,-5.0934,-5.1065,-5.1063,-5.1073,-5.0991,-5.0993,-5.0995,-5.1059,0,-5.0292,-5.0399,-5.0432,-5.0521,-5.0575,-5.0597,-5.0649,-5.0698,-5.0731,-5.0781,-5.0817,-5.0874,-5.0871,-5.0894,-5.0932,-5.097,-5.101,-5.0966,-5.1036,-5.1038,-5.1018,-5.1085,-5.1084,-5.1142,-5.1068,-5.107,-5.1071,0,-5.0376,-5.0432,-5.0526,-5.0591,-5.0615,-5.0661,-5.0723,-5.0772,-5.0829,-5.085,-5.0894,-5.0913,-5.0976,-5.0958,-5.1044,-5.1013,-5.1045,-5.1068,-5.1071,-5.1077,-5.1055,-5.109,-5.1161,-5.1169,-5.1085,-5.1084,-5.1083,0,-5.0399,-5.0497,-5.0566,-5.0595,-5.0673,-5.0705,-5.0739,-5.0794,-5.0831,-5.0886,-5.0911,-5.0973,-5.1006,-5.1053,-5.1089,-5.1073,-5.1171,-5.1157,-5.1189,-5.1188,-5.1206,-5.1204,-5.1281,-5.123,-5.123,-5.123,-5.123,0,-5.0461,-5.0517,-5.0577,-5.0619,-5.0682,-5.0721,-5.0783,-5.0818,-5.0867,-5.0916,-5.094,-5.0985,-5.1031,-5.1082,-5.1111,-5.1177,-5.1192,-5.121,-5.1216,-5.1207,-5.1204,-5.1225,-5.1221,-5.1232,-5.1232,-5.1231,-5.1231,0,-5.0496,-5.0538,-5.0614,-5.0683,-5.0701,-5.0745,-5.0803,-5.0844,-5.0879,-5.094,-5.0957,-5.101,-5.1072,-5.1113,-5.1192,-5.1211,-5.1282,-5.1289,-5.1263,-5.1265,-5.1294,-5.129,-5.1386,-5.1399,-5.1342,-5.1342,-5.1343,0,-5.0532,-5.0575,-5.0649,-5.0683,-5.0717,-5.0773,-5.0811,-5.0852,-5.089,-5.0959,-5.0992,-5.1055,-5.1108,-5.1206,-5.1251,-5.1311,-5.1318,-5.1348,-5.1327,-5.1316,-5.1316,-5.1312,-5.1316,-5.135,-5.135,-5.1351,-5.1351,0,-5.059,-5.0609,-5.0664,-5.0726,-5.0771,-5.0821,-5.0872,-5.0899,-5.0948,-5.0991,-5.1054,-5.1095,-5.1176,-5.1238,-5.1303,-5.1338,-5.1352,-5.1358,-5.1368,-5.1357,-5.1339,-5.1347,-5.1269,-5.1354,-5.1354,-5.1354,-5.1354,-5.1354,-5.0625,-5.0665,-5.0722,-5.0782,-5.0825,-5.0872,-5.0914,-5.0954,-5.1007,-5.1076,-5.1097,-5.1163,-5.1219,-5.1308,-5.1344,-5.1396,-5.1393,-5.1408,-5.1411,-5.1414,-5.1413,-5.1333,-5.1408,-5.1408,-5.1408,-5.1408,-5.1408,0,-5.0683,-5.0722,-5.0777,-5.0847,-5.0894,-5.0905,-5.0962,-5.1,-5.1058,-5.1109,-5.1161,-5.1234,-5.1295,-5.1345,-5.1408,-5.144,-5.1448,-5.1455,-5.1451,-5.1459,-5.1413,-5.1397,-5.1447,-5.1447,-5.1447,-5.1447,-5.1447,-5.1447,-5.0719,-5.0786,-5.0812,-5.09,-5.0938,-5.1003,-5.1034,-5.1078,-5.1119,-5.1199,-5.125,-5.1283,-5.1334,-5.1401,-5.1457,-5.1471,-5.1492,-5.1497,-5.1511,-5.1467,-5.1462,-5.1458,-5.1443,-5.1502,-5.1502,-5.1552,-5.1553,-5.1553]},{"header":{"parameterUnit":"m.s-1","parameterCategory":1,"la1":30.2991,"la2":30.254,"lo1":-89.0895,"lo2":-89.0444,"dy":0.0017,"dx":0.0017,"nx":28,"ny":28,"refTime":"2025-04-02T09:00:00:Z","depth":0,"parameterNumber":3,"parameterNumberName":"V-component_of_WINDS"},"data":[0,0,0,0,0,0,0,0,0,0,0,0,0,0,0,0,0,0,0,0,0,0,0,0,0,0,0,0,0,0,0,0,0,0,0,0,0,0,0,0,0,0,0,0,0,0,0,0,0,0,0,0,0,0,0,0,0,0,5.5116,5.5117,0,5.5246,5.5248,5.5249,5.5277,5.5276,5.5275,5.5274,5.5404,5.5408,5.5413,0,0,0,0,0,0,0,0,0,0,0,0,0,5.4888,5.4892,5.5115,5.5117,5.5119,5.5246,5.5248,5.525,5.5277,5.5276,5.5275,5.5274,5.5403,5.5408,5.5413,0,0,0,0,0,0,0,0,0,0,0,0,0,5.4999,5.4893,5.5115,5.5148,5.5152,5.5246,5.5248,5.525,5.5277,5.5276,5.5275,5.5273,5.5401,5.5407,5.5414,5.5483,0,0,5.5434,5.5437,0,0,0,0,0,0,0,0,5.4993,5.5008,5.5141,5.5146,5.5151,5.5244,5.5215,5.5328,5.5278,5.523,5.5274,5.5273,5.5352,5.5362,5.539,5.5489,5.5494,5.5434,5.5438,5.5441,5.5443,0,0,0,0,0,0,0,5.4985,5.5002,5.5167,5.5143,5.5149,5.5156,5.517,5.5237,5.5297,5.5234,5.5236,5.5252,5.5354,5.5383,5.5393,5.5496,5.5434,5.544,5.5444,5.5446,5.5662,5.5664,0,0,0,0,0,0,5.4972,5.4995,5.5163,5.5171,5.5067,5.5161,5.5177,5.5215,5.5296,5.5307,5.5253,5.5252,5.5373,5.5385,5.5398,5.5487,5.5441,5.5447,5.5451,5.566,5.5663,5.5665,0,0,0,0,0,0,5.4967,5.4987,5.5158,5.5084,5.5106,5.5166,5.5209,5.5219,5.5248,5.5311,5.5321,5.5272,5.5372,5.5389,5.5463,5.5491,5.545,5.5456,5.5658,5.5661,5.5664,5.5663,0,0,0,0,0,0,5.496,5.4985,5.5012,5.5085,5.511,5.5221,5.5211,5.5222,5.526,5.5261,5.5332,5.5342,5.5372,5.5453,5.5469,5.55,5.5461,5.5656,5.566,5.5663,5.5661,5.5665,5.5669,0,0,0,0,0,5.4952,5.5005,5.5013,5.5033,5.5145,5.5222,5.5237,5.5272,5.5262,5.529,5.5331,5.534,5.5485,5.546,5.5479,5.5512,5.5654,5.5659,5.5662,5.5659,5.5664,5.5669,0,0,0,0,0,0,5.4931,5.5015,5.5025,5.5103,5.5156,5.5227,5.5263,5.5277,5.5332,5.5331,5.5371,5.5387,5.5459,5.5492,5.5463,5.5584,5.5569,5.5577,5.556,5.5566,5.557,5.5561,5.5467,0,0,0,0,0,5.4936,5.4993,5.5062,5.5124,5.515,5.5202,5.5237,5.526,5.5316,5.5338,5.5384,5.5437,5.5495,5.5532,5.5588,5.5665,5.5682,5.5697,5.5702,5.5705,5.5712,5.5758,5.5766,5.5678,5.5678,5.5678,0,0,5.4946,5.4999,5.5031,5.5121,5.5165,5.5223,5.5221,5.5281,5.5324,5.5346,5.5421,5.5456,5.5518,5.5595,5.563,5.5625,5.574,5.571,5.5712,5.5717,5.5763,5.5771,5.5778,5.5681,5.568,5.568,0,0,5.4994,5.5039,5.5097,5.5142,5.5209,5.5244,5.5258,5.5328,5.5353,5.5429,5.5448,5.5499,5.5597,5.5642,5.5677,5.5746,5.5757,5.5763,5.5785,5.583,5.5837,5.5843,5.587,5.5879,5.5769,5.5769,5.5769,0,5.4998,5.5086,5.5125,5.5186,5.5226,5.5251,5.5311,5.5351,5.5433,5.546,5.5452,5.5579,5.5622,5.5711,5.5728,5.5755,5.5773,5.5755,5.5833,5.584,5.5846,5.5872,5.5882,5.577,5.5769,5.5769,5.5769,0,5.5089,5.515,5.5189,5.527,5.5314,5.5373,5.5421,5.5461,5.5481,5.5516,5.5594,5.5647,5.5716,5.5739,5.5757,5.5831,5.5826,5.5825,5.5811,5.5855,5.588,5.589,5.577,5.577,5.577,5.577,0,0,5.5126,5.523,5.5244,5.5283,5.536,5.5408,5.5469,5.5539,5.5574,5.5629,5.5683,5.5767,5.5768,5.5808,5.5832,5.5871,5.5925,5.5866,5.5868,5.5877,5.6013,5.6014,5.6025,5.5933,5.5935,5.5936,5.6008,0,5.5185,5.5298,5.5336,5.5429,5.5487,5.5513,5.5567,5.562,5.5656,5.571,5.5748,5.5809,5.5804,5.5829,5.5868,5.591,5.5953,5.5905,5.5984,5.5986,5.5969,5.6038,5.6039,5.6104,5.6018,5.602,5.6021,0,5.5269,5.533,5.5429,5.5503,5.5528,5.5576,5.5645,5.5696,5.5758,5.5781,5.5828,5.5849,5.5915,5.5897,5.5989,5.5956,5.599,5.6015,5.6019,5.6028,5.6007,5.6051,5.6125,5.6135,5.6036,5.6035,5.6034,0,5.529,5.5395,5.547,5.5502,5.5588,5.5622,5.5659,5.5719,5.576,5.5819,5.5847,5.5912,5.5948,5.5998,5.6038,5.602,5.6127,5.6111,5.6149,5.6148,5.6171,5.6169,5.6253,5.619,5.6189,5.6189,5.6189,0,5.5353,5.5413,5.5481,5.5527,5.5596,5.5638,5.5705,5.5744,5.5798,5.5852,5.5877,5.5927,5.5975,5.6032,5.6062,5.6135,5.615,5.6171,5.6179,5.617,5.6168,5.6194,5.6191,5.6192,5.6191,5.6191,5.619,0,5.5388,5.5435,5.5519,5.5595,5.5615,5.5663,5.5728,5.5774,5.5811,5.5879,5.5897,5.5955,5.6023,5.6068,5.6153,5.6174,5.6254,5.626,5.6234,5.6238,5.6274,5.6271,5.6379,5.6397,5.632,5.632,5.6321,0,5.5426,5.5474,5.5556,5.5595,5.5634,5.5695,5.5738,5.5782,5.5825,5.5901,5.5938,5.6008,5.6066,5.6174,5.6223,5.6289,5.6298,5.6331,5.6308,5.6298,5.6301,5.6298,5.6304,5.6335,5.6336,5.6336,5.6337,0,5.5489,5.5511,5.5572,5.5643,5.5694,5.5751,5.5807,5.5838,5.5892,5.5939,5.601,5.6056,5.6145,5.6215,5.6286,5.6324,5.634,5.6344,5.6357,5.6349,5.6333,5.6344,5.6247,5.6341,5.6341,5.634,5.634,5.634,5.5529,5.5574,5.564,5.5708,5.5756,5.5809,5.5857,5.5902,5.5962,5.604,5.6062,5.6136,5.6199,5.6297,5.6336,5.6395,5.6391,5.6409,5.6414,5.6418,5.642,5.6322,5.6408,5.6408,5.6408,5.6408,5.6408,0,5.5596,5.564,5.5702,5.5783,5.5837,5.5849,5.5913,5.5957,5.6023,5.6081,5.6139,5.6222,5.629,5.6346,5.6417,5.6453,5.6462,5.647,5.6469,5.6478,5.6418,5.6401,5.6462,5.6462,5.6462,5.6462,5.6462,5.6462,5.5637,5.5715,5.5745,5.5847,5.5891,5.5966,5.6002,5.6052,5.6098,5.619,5.6248,5.6285,5.6342,5.6418,5.6481,5.6496,5.6522,5.6529,5.6545,5.6488,5.6482,5.6476,5.6461,5.6533,5.6533,5.6601,5.6601,5.6602]}]]